EW2549 Weather Reports


time (UTC)temp
C
wind
direction
speed
KPH
gust
KPH
rain 1hr
cm
rain 24hr
cm
rain mn
cm
humidity
%
barometer
mb
20260509063024 11 195 0.0 0.0 0.00 0.00 0.00 65 1005.4
20260509061522 11 195 0.0 0.0 0.00 0.00 0.00 64 1005.7
20260509060021 11 195 0.0 0.0 0.00 0.00 0.00 63 1005.8
20260509054616 11 201 0.0 0.0 0.00 0.00 0.00 63 1005.9
20260509053024 11 201 0.0 0.0 0.00 0.00 0.00 62 1006.2
20260509051515 11 221 0.0 0.0 0.00 0.00 0.00 63 1006.4
20260509050035 12 227 0.0 0.0 0.00 0.00 0.00 63 1006.6
20260509044514 12 227 0.0 0.0 0.00 0.00 0.00 63 1006.8
20260509043026 12 227 0.0 0.0 0.00 0.00 0.00 62 1007.0
20260509041513 12 174 0.0 0.0 0.00 0.00 0.00 63 1007.3
20260509040013 12 135 0.0 0.0 0.00 0.00 0.00 62 1007.4
20260509034512 13 135 0.0 0.0 0.00 0.00 0.00 60 1007.6
20260509033017 13 135 0.0 0.0 0.00 0.00 0.00 59 1007.7
20260509031511 14 135 0.0 0.0 0.00 0.00 0.00 56 1007.5
20260509030018 15 135 0.0 0.0 0.00 0.00 0.00 51 1007.2
20260509024509 15 135 0.0 0.0 0.00 0.00 0.00 48 1007.0
20260509023009 16 135 0.0 0.0 0.00 0.00 0.00 46 1006.9
20260509021509 16 135 0.0 0.0 0.00 0.00 0.00 46 1006.8
20260509020009 17 135 0.0 0.0 0.00 0.00 0.00 44 1006.5
20260509014507 17 135 0.0 0.0 0.00 0.00 0.00 43 1006.3
20260509013007 18 135 0.0 0.0 0.00 0.00 0.00 42 1006.3
20260509011508 18 135 0.0 0.0 0.00 0.00 0.00 41 1006.2
20260509010014 19 99 0.0 0.0 0.00 0.00 0.00 39 1006.1
20260509004506 20 100 0.0 0.0 0.00 0.00 0.00 38 1006.2
20260509003005 20 105 0.0 0.0 0.00 0.00 0.00 35 1006.0
20260509001504 21 105 0.0 3.2 0.00 0.00 0.00 34 1006.1
20260509000003 21 109 0.0 4.8 0.00 0.00 0.00 36 1006.2
20260508234600 21 110 0.0 4.8 0.00 0.00 0.00 35 1006.3
20260508231559 21 182 0.0 8.0 0.00 0.00 0.00 36 1006.4
20260508230058 21 172 3.2 8.0 0.00 0.00 0.00 36 1006.4
20260508224611 21 51 0.0 4.8 0.00 0.00 0.00 37 1006.4
20260508223053 21 248 0.0 8.0 0.00 0.00 0.00 38 1006.5
20260508221557 20 97 0.0 8.0 0.00 0.00 0.00 36 1006.7
20260508220049 20 47 0.0 0.0 0.00 0.00 0.00 41 1006.8
20260508214550 20 74 0.0 0.0 0.00 0.00 0.00 39 1006.8
20260508213045 20 82 0.0 11.3 0.00 0.00 0.00 41 1007.1
20260508211548 20 70 0.0 6.4 0.00 0.00 0.00 41 1007.2
20260508210042 19 235 0.0 8.0 0.00 0.00 0.00 41 1007.4
20260508204540 20 143 0.0 6.4 0.00 0.00 0.00 40 1007.5
20260508203037 19 103 0.0 11.3 0.00 0.00 0.00 42 1007.8
20260508201538 19 61 0.0 6.4 0.00 0.00 0.00 43 1007.7
20260508200041 18 94 0.0 6.4 0.00 0.00 0.00 44 1008.1
20260508194529 18 39 0.0 6.4 0.00 0.00 0.00 44 1008.2
20260508193028 18 49 0.0 3.2 0.00 0.00 0.00 42 1008.4
20260508191530 17 47 0.0 9.7 0.00 0.00 0.00 46 1008.5
20260508190026 18 69 0.0 6.4 0.00 0.00 0.00 45 1008.6
20260508184528 18 62 0.0 11.3 0.00 0.00 0.00 46 1008.8
20260508183023 17 84 0.0 11.3 0.00 0.00 0.00 49 1008.8
20260508181522 17 73 0.0 8.0 0.00 0.00 0.00 46 1009.1
20260508180020 17 86 0.0 6.4 0.00 0.00 0.00 47 1009.3
20260508174517 16 82 0.0 14.5 0.00 0.00 0.00 48 1009.4
20260508173018 16 102 0.0 8.0 0.00 0.00 0.00 48 1009.6
20260508171528 16 77 0.0 0.0 0.00 0.00 0.00 48 1009.8
20260508170014 16 94 0.0 11.3 0.00 0.00 0.00 47 1009.9
20260508164512 16 90 0.0 0.0 0.00 0.00 0.00 51 1009.8
20260508163008 15 89 0.0 17.7 0.00 0.00 0.00 53 1009.8
20260508160002 15 69 0.0 12.9 0.00 0.00 0.00 56 1009.9
20260508154601 13 126 0.0 4.8 0.00 0.00 0.00 59 1009.9
20260508153057 13 111 0.0 9.7 0.00 0.00 0.00 58 1009.8
20260508151553 12 196 0.0 8.0 0.00 0.00 0.00 63 1009.9
20260508150111 12 214 0.0 12.9 0.00 0.00 0.00 67 1010.1
20260508144552 11 188 0.0 11.3 0.00 0.00 0.00 71 1010.2
20260508143049 10 188 0.0 8.0 0.00 0.00 0.00 72 1010.5
20260508141549 10 184 0.0 0.0 0.00 0.00 0.00 76 1010.6
20260508140051 9 190 0.0 0.0 0.00 0.00 0.00 79 1010.8
20260508134544 8 217 0.0 0.0 0.00 0.00 0.00 84 1010.8
20260508133044 7 213 0.0 0.0 0.00 0.00 0.00 86 1010.9
20260508131540 7 245 0.0 0.0 0.00 0.00 0.00 89 1011.0
20260508130039 6 245 0.0 0.0 0.00 0.00 0.00 89 1010.9
20260508124539 6 323 0.0 0.0 0.00 0.00 0.00 90 1011.0
20260508123038 5 330 0.0 0.0 0.00 0.00 0.00 90 1011.2
20260508121535 5 330 0.0 0.0 0.00 0.00 0.00 90 1010.7
20260508120032 4 330 0.0 0.0 0.00 0.00 0.00 89 1009.9
20260508114534 4 330 0.0 0.0 0.00 0.00 0.00 87 1009.8
20260508113044 4 330 0.0 0.0 0.00 0.00 0.00 87 1009.6
20260508111528 4 330 0.0 0.0 0.00 0.00 0.00 86 1009.4
20260508110026 4 330 0.0 0.0 0.00 0.00 0.00 86 1009.4
20260508104525 5 331 0.0 0.0 0.00 0.00 0.00 85 1008.9
20260508103026 5 330 0.0 0.0 0.00 0.00 0.00 84 1008.7
20260508101528 5 329 0.0 0.0 0.00 0.00 0.00 83 1008.0
20260508094518 5 329 0.0 0.0 0.00 0.00 0.00 81 1008.4
20260508093016 6 329 0.0 0.0 0.00 0.00 0.00 81 1008.4
20260508091513 6 329 0.0 0.0 0.00 0.00 0.00 81 1008.5
20260508090011 6 329 0.0 0.0 0.00 0.00 0.00 81 1008.5
20260508084510 6 329 0.0 0.0 0.00 0.00 0.00 82 1008.6
20260508083009 6 329 0.0 0.0 0.00 0.00 0.00 81 1008.9
20260508081507 6 329 0.0 0.0 0.00 0.00 0.00 80 1009.1
20260508080003 7 329 0.0 0.0 0.00 0.00 0.00 78 1009.1
20260508074607 7 329 0.0 0.0 0.00 0.00 0.00 76 1009.7
20260508073106 7 329 0.0 0.0 0.00 0.00 0.00 75 1009.5
20260508071556 7 335 0.0 0.0 0.00 0.00 0.00 73 1009.3
20260508070051 8 335 0.0 0.0 0.00 0.00 0.00 71 1009.1
20260508064602 9 335 0.0 0.0 0.00 0.00 0.00 69 1009.2